239  
ASUS44 KMEG 141110  
RWRMEG  
MEMPHIS CWA HOURLY WEATHER ROUNDUP  
NATIONAL WEATHER SERVICE MEMPHIS TN  
600 AM CDT SUN JUL 14 2024  
   
..WEST TENNESSEE
 
 
 
CITY SKY/WX TMP DP RH WIND PRES REMARKS
 
MEMPHIS INTL MOCLDY 78 71 79 CALM 30.12S  
NWS MEMPHIS N/A 75 N/A N/A MISG N/A  
FRAYSER N/A 75 75 100 CALM 30.11R  
JACKSON PTCLDY 73 70 90 CALM 30.14R  
COVINGTON CLEAR 73 73 100 CALM 30.12R FOG  
SOMERVILLE CLEAR 73 73 100 CALM 30.12R  
BOLIVAR CLEAR 72 72 100 CALM 30.12S  
LEXINGTON CLEAR 70 70 100 CALM 30.13R FOG  
SELMER CLEAR 72 70 94 CALM 30.13S  
SAVANNAH N/A 70 70 100 N3 30.11S  
DYERSBURG PTCLDY 74 32 21 CALM 30.13R HAZE  
UNION CITY FOG 72 72 100 CALM 30.11R VSB 0  
PARIS CLEAR 70 70 100 CALM 30.13R  
HUNTINGDON CLEAR 72 72 100 CALM 30.12R  
 
   
..EASTERN ARKANSAS
 
 
 
CITY SKY/WX TMP DP RH WIND PRES REMARKS
 
JONESBORO CLEAR 74 70 87 CALM 30.11S  
WEST MEMPHIS PTCLDY 77 71 82 VRB3 30.11R  
BATESVILLE CLEAR 73 73 100 CALM 30.12S  
NEWPORT CLEAR 74 73 97 S7 30.11S  
WALNUT RIDGE CLEAR 76 76 100 CALM 30.11R  
BLYTHEVILLE CLEAR 75 71 87 CALM 30.11R  
FORREST CITY PTCLDY 61 59 94 CALM 30.12R  
SEARCY FOG 73 73 100 CALM 30.13R VSB 1  
STUTTGART CLEAR 75 75 100 SW6 30.14R  
PINE BLUFF CLEAR 75 73 93 SW3 30.14R  
MONTICELLO MOCLDY 77 74 90 W5 30.14R  
 
   
..NORTH MISSISSIPPI
 
 
 
CITY SKY/WX TMP DP RH WIND PRES REMARKS
 
TUPELO CLOUDY 77 73 87 CALM 30.12R  
OXFORD MOCLDY 73 72 94 CALM 30.15R  
BATESVILLE PTCLDY 73 72 94 CALM 30.13R  
OLIVE BRANCH CLEAR 75 73 94 CALM 30.12S  
TUNICA PTCLDY 74 74 100 CALM 30.13R  
CLARKSDALE N/A 75 75 100 CALM 30.13S  
CORINTH MOCLDY 72 72 100 CALM 30.13R FOG  
IUKA MOCLDY 71 71 100 CALM 30.14R  
GREENWOOD CLOUDY 77 73 87 S3 30.14R  
COLUMBUS MOCLDY 73 70 92 W3 30.08R  
GOLDEN TRIANGL MOCLDY 75 71 87 CALM 30.13R  
 
   
..SOUTHEAST MISSOURI
 
 
 
CITY SKY/WX TMP DP RH WIND PRES REMARKS
 
KENNETT FOG 73 73 100 S5 30.09S VSB<1/4  
MALDEN CLEAR 75 72 88 S5 30.11S  
WEST PLAINS CLEAR 74 69 85 SW3 30.13S  
POPLAR BLUFF CLEAR 74 72 93 CALM 30.10R  
CAPE GIRARDEAU CLEAR 74 73 97 CALM 30.09S  
 
   
..NORTHWEST ALABAMA
 
 
 
CITY SKY/WX TMP DP RH WIND PRES REMARKS
 
MUSCLE SHOALS PTCLDY 72 69 90 CALM 30.13R  
 
   
..MIDDLE TENNESSEE
 
 
 
CITY SKY/WX TMP DP RH WIND PRES REMARKS
 
NASHVILLE PTCLDY 74 68 81 CALM 30.16R  
CLARKSVILLE CLEAR 71 68 90 CALM 30.13R FOG  
DICKSON CLEAR 70 66 88 CALM 30.14R  
LAWRENCEBURG CLEAR 68 68 100 MISG 30.15S FOG  
LEWISBURG CLEAR 66 66 100 CALM 30.14S  
 
   
..WESTERN KENTUCKY
 
 
 
CITY SKY/WX TMP DP RH WIND PRES REMARKS
 
PADUCAH CLEAR 77 71 82 VRB3 30.09F  
FORT CAMPBELL CLEAR 74 70 88 CALM 30.12R  
 
   
..CENTRAL ARKANSAS
 
 
 
CITY SKY/WX TMP DP RH WIND PRES REMARKS
 
LITTLE ROCK CLEAR 77 73 87 CALM 30.12R  
 
SKY/WX REPORTED AS FAIR MEANS FEW OR NO CLOUDS BELOW  
12 THOUSAND FEET.  
 
 
 
CLICK HERE TO GO TO PREVIOUS BULLETINS.

The Nexlab TN Page
The Nexlab MS Page
The Nexlab AR Page Main Text Page